WHDW 03-06

operational
NORAD ID: 63692 Int'l Des: 2025-086 Owner: ZXW Country: CN
LEOCIRCULARPOLARONEWEB_TYPE

Über WHDW 03-06

Beschreibung wird geladen...

Live-Position

3D-Globus wird geladen...

Nächste Überflüge

Höhenverlauf

Altitude vs Time

uPlot chart will show altitude changes over time

Zweizeiliger Elementsatz

1 63692U 25086F 26061.16933270 .00000020 00000-0 11661-4 0 9994
2 63692 86.5105 349.0852 0001618 91.4542 268.6778 13.24421433 40695
Epoch: 2. März 2026 • Age: 25 hours

Aktueller Status

Höhe 1171.6 km
Geschwindigkeit 7.27 km/s
Subsatellitenpunkt 33.28°N, 5.5°W
Startdatum 28. Apr. 2025
Alter 0.8 years
Typ other

Technische Details

Klassifizierung Payload
Masse 800.00 kg
Trockenmasse 800.00 kg
Gesamtmasse 800.00 kg
Länge 3.00 m
Durchmesser 1.00 m
Spannweite 10.00 m
Form Box + 2 Pan
Hersteller CAST
Bus-Typ Xingwang CL
Phasenstatus In Orbit
Besitzer/Staat ZXW/CN

Große Konstellationen

Loading constellations...